Regional Weather Roundup
Issued by NWS Goodland, KS

Home | Current Version | Previous Version | Text Only | Print | Product List | Glossary Off
Versions: 1 2 3 4 5 6 7 8 9 10 11 12 13 14 15 16 17 18 19 20 21 22 23 24 25 26 27 28 29 30 31 32 33 34 35 36 37 38 39 40 41 42 43 44 45 46 47 48 49 50

711
ASUS43 KGLD 120659
RWRGLD

GOODLAND FORECAST AREA HOURLY WEATHER ROUNDUP
NATIONAL WEATHER SERVICE GOODLAND KS
1200 AM MST FRI FEB 12 2016

...OFFICIAL OBSERVATIONS...

CITY           SKY/WX    TMP DP  RH WIND       PRES   REMARKS
GOODLAND KS    CLOUDY    32  26  78 NW12      30.24S
HILL CITY KS   NOT AVBL
IMPERIAL NEB   CLOUDY    32  27  81 N8        30.23S
MCCOOK NEB     CLOUDY    33  28  81 SW9       30.23R
AKRON CO       CLOUDY    34  26  72 SW8       30.26S
BURLINGTON CO  CLOUDY    36  26  67 NW9       30.25S
LIMON CO       CLOUDY    22  19  89 CALM      30.29S
$$

...UNOFFICIAL OBSERVATIONS...

CITY           SKY/WX    TMP DP  RH WIND       PRES   REMARKS
COLBY KS       CLEAR     36  32  87 NW13      30.25R
GOVE KS          N/A     42  32  68 MISG        N/A
LENORA KS        N/A     36  32  85 MISG        N/A
NORTON KS      CLEAR     34  27  75 SW5       30.22
SHARON SPRINGS   N/A     33  28  83 W7          N/A
TRENTON NEB      N/A     35  32  89 MISG        N/A
KIT CARSON CO    N/A     32  26  79 MISG        N/A
YUMA CO          N/A     31  27  84 CALM        N/A
$$




USA.gov is the U.S. government's official web portal to all federal, state and local government web resources and services.